Private Wetterstation Wechselburg
Wetterdaten: Dienstag, 25.09.2012
Datum Zeit Temp. +2m Bodentemp. Temp.+5cm Temp. Wind Windchill X Diff Temp. Feuchte +2m Feuchte +5cm Sonnenschein Luftdruck Regen Wind Richtung Richtung Sonnenschein UV Taupunkt Windchill Windben
25.09.2012 00:00 15,5 C 19,9 C 14,7 C 15,2 C 14,7 C 0,0 C 70 % 78 % 0 % 1004,1 hPa 0,0 l/m 5,8 km/h (2 Bft) SW 225 0 min 0,0 UV-I 10,1 C 14,7 C 11,7 km/h (2 Bft)
25.09.2012 00:05 15,2 C 19,9 C 14,7 C 15,0 C 14,5 C 0,0 C 70 % 78 % 0 % 1004,1 hPa 0,0 l/m 5,6 km/h (1 Bft) W 270 0 min 0,0 UV-I 9,8 C 14,5 C 5,8 km/h (2 Bft)
25.09.2012 00:10 15,2 C 19,9 C 14,5 C 14,9 C 14,4 C 0,0 C 70 % 78 % 0 % 1004,1 hPa 0,0 l/m 5,1 km/h (1 Bft) NW 315 0 min 0,0 UV-I 9,8 C 14,4 C 5,5 km/h (1 Bft)
25.09.2012 00:15 15,0 C 19,9 C 14,5 C 14,8 C 14,3 C 0,0 C 70 % 78 % 0 % 1004,1 hPa 0,0 l/m 5,3 km/h (1 Bft) W 270 0 min 0,0 UV-I 9,6 C 14,3 C 6,4 km/h (2 Bft)
25.09.2012 00:20 15,0 C 19,9 C 14,5 C 14,8 C 14,3 C 0,0 C 71 % 78 % 0 % 1004,2 hPa 0,0 l/m 6,0 km/h (2 Bft) SW 225 0 min 0,0 UV-I 9,8 C 14,3 C 10,5 km/h (2 Bft)
25.09.2012 00:25 14,8 C 19,9 C 14,4 C 14,6 C 14,2 C 0,0 C 71 % 79 % 0 % 1004,2 hPa 0,0 l/m 6,6 km/h (2 Bft) S-SW 202 0 min 0,0 UV-I 9,6 C 14,2 C 8,7 km/h (2 Bft)
25.09.2012 00:30 14,9 C 19,9 C 14,3 C 14,7 C 14,2 C 0,0 C 71 % 79 % 0 % 1004,2 hPa 0,0 l/m 6,3 km/h (2 Bft) S 180 0 min 0,0 UV-I 9,7 C 14,2 C 14,2 km/h (3 Bft)
25.09.2012 00:35 14,7 C 19,9 C 14,3 C 14,5 C 14,0 C 0,0 C 71 % 79 % 0 % 1004,2 hPa 0,0 l/m 5,8 km/h (2 Bft) W-SW 247 0 min 0,0 UV-I 9,5 C 14,0 C 7,6 km/h (2 Bft)
25.09.2012 00:41 14,7 C 19,9 C 14,1 C 14,4 C 13,9 C 0,0 C 71 % 79 % 0 % 1004,5 hPa 0,0 l/m 5,1 km/h (1 Bft) N 0 0 min 0,0 UV-I 9,5 C 13,9 C 4,7 km/h (1 Bft)
25.09.2012 00:55 14,3 C 19,9 C 13,9 C 14,1 C 13,6 C 0,0 C 72 % 79 % 0 % 1004,5 hPa 0,0 l/m 5,3 km/h (1 Bft) SW 225 0 min 0,0 UV-I 9,3 C 13,6 C 9,0 km/h (2 Bft)
25.09.2012 01:00 14,2 C 19,9 C 13,8 C 14,0 C 13,5 C 0,0 C 71 % 79 % 0 % 1004,9 hPa 0,0 l/m 4,5 km/h (1 Bft) W 270 0 min 0,0 UV-I 9,0 C 13,5 C 4,8 km/h (1 Bft)
25.09.2012 01:05 14,1 C 19,9 C 13,7 C 13,8 C 13,2 C 0,0 C 72 % 79 % 0 % 1004,9 hPa 0,0 l/m 3,7 km/h (1 Bft) O 90 0 min 0,0 UV-I 9,1 C 13,2 C 2,1 km/h (1 Bft)
25.09.2012 01:10 14,0 C 19,9 C 13,7 C 13,7 C 13,2 C 0,0 C 72 % 79 % 0 % 1004,9 hPa 0,0 l/m 3,4 km/h (1 Bft) W 270 0 min 0,0 UV-I 9,0 C 13,2 C 4,5 km/h (1 Bft)
25.09.2012 01:15 13,9 C 19,9 C 13,6 C 13,6 C 13,0 C 0,0 C 73 % 80 % 0 % 1004,9 hPa 0,0 l/m 3,2 km/h (1 Bft) O-SO 112 0 min 0,0 UV-I 9,1 C 13,0 C 2,4 km/h (1 Bft)
25.09.2012 01:20 13,9 C 19,9 C 13,5 C 13,6 C 12,9 C 0,0 C 73 % 80 % 0 % 1004,8 hPa 0,0 l/m 2,3 km/h (1 Bft) NW 315 0 min 0,0 UV-I 9,1 C 12,9 C 1,8 km/h (1 Bft)
25.09.2012 01:25 13,7 C 19,9 C 13,5 C 13,4 C 12,8 C 0,0 C 74 % 80 % 0 % 1004,8 hPa 0,0 l/m 1,6 km/h (1 Bft) W 270 0 min 0,0 UV-I 9,2 C 12,8 C 2,3 km/h (1 Bft)
25.09.2012 01:30 13,7 C 19,9 C 13,5 C 13,4 C 12,7 C 0,0 C 74 % 80 % 0 % 1004,8 hPa 0,0 l/m 2,3 km/h (1 Bft) NO 45 0 min 0,0 UV-I 9,2 C 12,7 C 6,3 km/h (2 Bft)
25.09.2012 01:35 13,7 C 19,9 C 13,3 C 13,3 C 12,6 C 0,0 C 74 % 80 % 0 % 1004,8 hPa 0,0 l/m 2,3 km/h (1 Bft) SO 135 0 min 0,0 UV-I 9,2 C 12,6 C 4,2 km/h (1 Bft)
25.09.2012 01:40 13,6 C 19,9 C 13,3 C 13,3 C 12,6 C 0,0 C 74 % 80 % 0 % 1005,2 hPa 0,0 l/m 2,4 km/h (1 Bft) N-NO 22 0 min 0,0 UV-I 9,1 C 12,6 C 2,6 km/h (1 Bft)
25.09.2012 01:45 13,5 C 19,9 C 13,2 C 13,1 C 12,4 C 0,0 C 73 % 80 % 0 % 1005,2 hPa 0,0 l/m 1,9 km/h (1 Bft) SW 225 0 min 0,0 UV-I 8,8 C 12,4 C 0,0 km/h (0 Bft)
25.09.2012 01:50 13,5 C 19,8 C 13,0 C 13,1 C 12,3 C 0,0 C 73 % 80 % 0 % 1005,2 hPa 0,0 l/m 1,3 km/h (1 Bft) NO 45 0 min 0,0 UV-I 8,8 C 12,3 C 0,0 km/h (0 Bft)
25.09.2012 01:55 13,2 C 19,9 C 13,1 C 12,8 C 12,1 C 0,0 C 74 % 80 % 0 % 1005,2 hPa 0,0 l/m 0,8 km/h (0 Bft) S 180 0 min 0,0 UV-I 8,7 C 12,1 C 5,1 km/h (1 Bft)
25.09.2012 02:00 13,2 C 19,9 C 13,0 C 12,8 C 12,0 C 0,0 C 74 % 80 % 0 % 1005,2 hPa 0,0 l/m 0,8 km/h (0 Bft) O-SO 112 0 min 0,0 UV-I 8,7 C 12,0 C 2,1 km/h (1 Bft)
25.09.2012 02:05 13,1 C 19,9 C 13,0 C 12,7 C 11,9 C 0,0 C 75 % 81 % 0 % 1005,2 hPa 0,0 l/m 1,0 km/h (0 Bft) N-NO 22 0 min 0,0 UV-I 8,8 C 11,9 C 0,0 km/h (0 Bft)
25.09.2012 02:10 13,0 C 19,9 C 12,9 C 12,6 C 11,9 C 0,0 C 75 % 81 % 0 % 1005,2 hPa 0,0 l/m 1,0 km/h (0 Bft) W-SW 247 0 min 0,0 UV-I 8,7 C 11,9 C 3,1 km/h (1 Bft)
25.09.2012 02:15 12,9 C 19,9 C 12,8 C 12,5 C 11,7 C 0,0 C 75 % 81 % 0 % 1005,2 hPa 0,0 l/m 0,8 km/h (0 Bft) S 180 0 min 0,0 UV-I 8,6 C 11,7 C 0,0 km/h (0 Bft)
25.09.2012 02:20 12,8 C 19,9 C 12,7 C 12,4 C 11,6 C 0,0 C 75 % 81 % 0 % 1005,4 hPa 0,0 l/m 1,1 km/h (1 Bft) S-SW 202 0 min 0,0 UV-I 8,5 C 11,6 C 1,8 km/h (1 Bft)
25.09.2012 02:25 12,7 C 19,9 C 12,7 C 12,3 C 11,5 C 0,0 C 76 % 81 % 0 % 1005,4 hPa 0,0 l/m 1,0 km/h (0 Bft) SO 135 0 min 0,0 UV-I 8,6 C 11,5 C 4,8 km/h (1 Bft)
25.09.2012 02:30 12,7 C 19,9 C 12,6 C 12,3 C 11,4 C 0,0 C 76 % 81 % 0 % 1005,4 hPa 0,0 l/m 1,6 km/h (1 Bft) W 270 0 min 0,0 UV-I 8,6 C 11,4 C 4,7 km/h (1 Bft)
25.09.2012 02:35 12,5 C 19,9 C 12,6 C 12,1 C 11,4 C 0,0 C 76 % 81 % 0 % 1005,4 hPa 0,0 l/m 1,8 km/h (1 Bft) W-NW 292 0 min 0,0 UV-I 8,4 C 11,4 C 0,0 km/h (0 Bft)
25.09.2012 02:40 12,5 C 19,9 C 12,5 C 12,1 C 11,3 C 0,0 C 76 % 81 % 0 % 1005,7 hPa 0,0 l/m 1,1 km/h (1 Bft) N-NW 337 0 min 0,0 UV-I 8,4 C 11,3 C 0,0 km/h (0 Bft)
25.09.2012 02:45 12,3 C 19,9 C 12,4 C 11,9 C 11,2 C 0,0 C 77 % 82 % 0 % 1005,7 hPa 0,0 l/m 0,6 km/h (0 Bft) S-SW 202 0 min 0,0 UV-I 8,4 C 11,2 C 1,6 km/h (1 Bft)
25.09.2012 02:50 12,2 C 19,9 C 12,5 C 11,8 C 11,1 C 0,0 C 77 % 82 % 0 % 1005,7 hPa 0,0 l/m 0,8 km/h (0 Bft) S-SO 157 0 min 0,0 UV-I 8,3 C 11,1 C 2,4 km/h (1 Bft)
25.09.2012 02:55 12,1 C 19,9 C 12,3 C 11,8 C 11,1 C 0,0 C 77 % 82 % 0 % 1005,7 hPa 0,0 l/m 1,3 km/h (1 Bft) S 180 0 min 0,0 UV-I 8,2 C 11,1 C 3,4 km/h (1 Bft)
25.09.2012 03:00 12,0 C 19,9 C 12,3 C 11,7 C 11,0 C 0,0 C 77 % 82 % 0 % 1005,8 hPa 0,0 l/m 1,1 km/h (1 Bft) SW 225 0 min 0,0 UV-I 8,1 C 11,0 C 0,0 km/h (0 Bft)
25.09.2012 03:05 12,0 C 19,9 C 12,0 C 11,6 C 10,8 C 0,0 C 77 % 82 % 0 % 1005,8 hPa 0,0 l/m 0,6 km/h (0 Bft) S 180 0 min 0,0 UV-I 8,1 C 10,8 C 0,0 km/h (0 Bft)
25.09.2012 03:10 11,9 C 19,9 C 11,8 C 11,5 C 10,7 C 0,0 C 77 % 82 % 0 % 1005,8 hPa 0,0 l/m 0,5 km/h (0 Bft) S 180 0 min 0,0 UV-I 8,0 C 10,7 C 0,0 km/h (0 Bft)
25.09.2012 03:15 11,6 C 19,9 C 11,6 C 11,2 C 10,3 C 0,0 C 78 % 82 % 0 % 1005,8 hPa 0,0 l/m 0,2 km/h (0 Bft) S 180 0 min 0,0 UV-I 7,9 C 10,3 C 0,0 km/h (0 Bft)
25.09.2012 03:20 11,5 C 19,9 C 11,4 C 11,0 C 10,1 C 0,0 C 78 % 83 % 0 % 1005,7 hPa 0,0 l/m 0,0 km/h (0 Bft) S-SO 157 0 min 0,0 UV-I 7,8 C 10,1 C 0,0 km/h (0 Bft)
25.09.2012 03:25 11,2 C 19,9 C 11,2 C 10,7 C 9,8 C 0,0 C 78 % 83 % 0 % 1005,7 hPa 0,0 l/m 0,0 km/h (0 Bft) S-SO 157 0 min 0,0 UV-I 7,5 C 9,8 C 0,0 km/h (0 Bft)
25.09.2012 03:30 11,1 C 19,9 C 11,2 C 10,6 C 9,7 C 0,0 C 78 % 83 % 0 % 1005,7 hPa 0,0 l/m 0,0 km/h (0 Bft) S-SO 157 0 min 0,0 UV-I 7,4 C 9,7 C 0,0 km/h (0 Bft)
25.09.2012 03:35 10,8 C 19,9 C 11,0 C 10,4 C 9,5 C 0,0 C 79 % 83 % 0 % 1005,7 hPa 0,0 l/m 0,0 km/h (0 Bft) S-SO 157 0 min 0,0 UV-I 7,3 C 9,5 C 0,0 km/h (0 Bft)
25.09.2012 03:40 10,7 C 19,9 C 11,0 C 10,2 C 9,3 C 0,0 C 79 % 83 % 0 % 1005,7 hPa 0,0 l/m 0,0 km/h (0 Bft) W-SW 247 0 min 0,0 UV-I 7,2 C 9,3 C 0,0 km/h (0 Bft)
25.09.2012 03:45 10,6 C 19,9 C 10,8 C 10,1 C 9,2 C 0,0 C 80 % 84 % 0 % 1005,7 hPa 0,0 l/m 0,0 km/h (0 Bft) W-SW 247 0 min 0,0 UV-I 7,3 C 9,2 C 0,0 km/h (0 Bft)
25.09.2012 03:50 10,4 C 19,9 C 10,9 C 10,0 C 9,1 C 0,0 C 80 % 84 % 0 % 1005,7 hPa 0,0 l/m 0,0 km/h (0 Bft) W-SW 247 0 min 0,0 UV-I 7,1 C 9,1 C 0,0 km/h (0 Bft)
25.09.2012 03:55 10,3 C 19,8 C 10,8 C 9,8 C 8,9 C 0,0 C 80 % 85 % 0 % 1005,7 hPa 0,0 l/m 0,0 km/h (0 Bft) SW 225 0 min 0,0 UV-I 7,0 C 8,9 C 0,0 km/h (0 Bft)
25.09.2012 04:00 10,2 C 20,0 C 10,7 C 9,7 C 8,8 C 0,0 C 80 % 84 % 0 % 1005,7 hPa 0,0 l/m 0,0 km/h (0 Bft) S-SW 202 0 min 0,0 UV-I 6,9 C 8,8 C 0,0 km/h (0 Bft)
25.09.2012 04:05 10,0 C 20,0 C 10,4 C 9,5 C 8,6 C 0,0 C 80 % 84 % 0 % 1005,7 hPa 0,0 l/m 0,0 km/h (0 Bft) S 180 0 min 0,0 UV-I 6,7 C 8,6 C 0,0 km/h (0 Bft)
25.09.2012 04:10 9,9 C 20,0 C 10,3 C 9,4 C 8,5 C 0,0 C 81 % 85 % 0 % 1005,7 hPa 0,0 l/m 0,0 km/h (0 Bft) S-SW 202 0 min 0,0 UV-I 6,8 C 8,5 C 0,0 km/h (0 Bft)
25.09.2012 04:15 9,5 C 20,0 C 10,1 C 9,1 C 8,3 C 0,0 C 82 % 85 % 0 % 1005,7 hPa 0,0 l/m 0,0 km/h (0 Bft) W 270 0 min 0,0 UV-I 6,6 C 8,3 C 0,0 km/h (0 Bft)
25.09.2012 04:20 9,5 C 19,9 C 10,1 C 9,1 C 8,3 C 0,0 C 82 % 85 % 0 % 1005,6 hPa 0,0 l/m 0,0 km/h (0 Bft) W 270 0 min 0,0 UV-I 6,6 C 8,3 C 0,0 km/h (0 Bft)
25.09.2012 04:25 9,2 C 19,9 C 10,1 C 8,9 C 8,3 C 0,0 C 82 % 85 % 0 % 1005,6 hPa 0,0 l/m 0,0 km/h (0 Bft) W 270 0 min 0,0 UV-I 6,3 C 8,3 C 0,0 km/h (0 Bft)
25.09.2012 04:30 9,1 C 19,9 C 10,0 C 8,8 C 8,2 C 0,0 C 82 % 86 % 0 % 1005,6 hPa 0,0 l/m 0,0 km/h (0 Bft) W-SW 247 0 min 0,0 UV-I 6,2 C 8,2 C 0,0 km/h (0 Bft)
25.09.2012 04:35 9,0 C 19,9 C 9,8 C 8,7 C 8,0 C 0,0 C 82 % 86 % 0 % 1005,6 hPa 0,0 l/m 0,0 km/h (0 Bft) SW 225 0 min 0,0 UV-I 6,1 C 8,0 C 0,0 km/h (0 Bft)
25.09.2012 04:40 8,8 C 19,9 C 9,9 C 8,5 C 8,0 C 0,0 C 82 % 86 % 0 % 1005,2 hPa 0,0 l/m 0,0 km/h (0 Bft) S-SW 202 0 min 0,0 UV-I 5,9 C 8,0 C 0,0 km/h (0 Bft)
25.09.2012 04:45 8,6 C 19,9 C 9,7 C 8,4 C 8,0 C 0,0 C 82 % 86 % 0 % 1005,2 hPa 0,0 l/m 0,0 km/h (0 Bft) W-SW 247 0 min 0,0 UV-I 5,7 C 8,0 C 0,0 km/h (0 Bft)
25.09.2012 04:50 8,5 C 19,9 C 9,5 C 8,3 C 7,9 C 0,0 C 82 % 86 % 0 % 1005,2 hPa 0,0 l/m 0,0 km/h (0 Bft) NW 315 0 min 0,0 UV-I 5,6 C 7,9 C 0,0 km/h (0 Bft)
25.09.2012 04:55 8,3 C 19,9 C 9,4 C 8,2 C 8,0 C 0,0 C 84 % 86 % 0 % 1005,2 hPa 0,0 l/m 0,3 km/h (0 Bft) N-NW 337 0 min 0,0 UV-I 5,8 C 8,0 C 0,0 km/h (0 Bft)
25.09.2012 05:00 8,2 C 19,9 C 9,3 C 8,1 C 8,0 C 0,0 C 84 % 87 % 0 % 1005,1 hPa 0,0 l/m 0,5 km/h (0 Bft) N 360 0 min 0,0 UV-I 5,7 C 8,0 C 0,0 km/h (0 Bft)
25.09.2012 05:05 8,3 C 19,9 C 9,3 C 8,2 C 8,0 C 0,0 C 84 % 87 % 0 % 1005,1 hPa 0,0 l/m 0,2 km/h (0 Bft) N 360 0 min 0,0 UV-I 5,8 C 8,0 C 0,0 km/h (0 Bft)
25.09.2012 05:10 8,2 C 19,9 C 9,3 C 8,1 C 8,0 C 0,0 C 84 % 87 % 0 % 1005,1 hPa 0,0 l/m 0,0 km/h (0 Bft) NO 45 0 min 0,0 UV-I 5,7 C 8,0 C 0,0 km/h (0 Bft)
25.09.2012 05:15 8,2 C 19,8 C 9,2 C 8,2 C 8,2 C 0,0 C 84 % 87 % 0 % 1005,1 hPa 0,0 l/m 0,2 km/h (0 Bft) N-NW 337 0 min 0,0 UV-I 5,7 C 8,2 C 0,0 km/h (0 Bft)
25.09.2012 05:20 8,3 C 19,8 C 9,3 C 8,3 C 8,3 C 0,0 C 84 % 87 % 0 % 1005,2 hPa 0,0 l/m 0,2 km/h (0 Bft) NO 45 0 min 0,0 UV-I 5,8 C 8,3 C 0,0 km/h (0 Bft)
25.09.2012 05:25 8,3 C 19,8 C 9,3 C 8,5 C 8,5 C 0,2 C 84 % 87 % 0 % 1005,2 hPa 0,0 l/m 0,2 km/h (0 Bft) O-NO 67 0 min 0,0 UV-I 5,8 C 8,5 C 0,0 km/h (0 Bft)
25.09.2012 05:30 8,3 C 19,8 C 9,3 C 8,6 C 8,6 C 0,3 C 84 % 87 % 0 % 1005,2 hPa 0,0 l/m 0,2 km/h (0 Bft) O-NO 67 0 min 0,0 UV-I 5,8 C 8,6 C 0,0 km/h (0 Bft)
25.09.2012 05:35 8,4 C 19,8 C 9,2 C 8,6 C 8,6 C 0,2 C 84 % 87 % 0 % 1005,2 hPa 0,0 l/m 0,2 km/h (0 Bft) O-NO 67 0 min 0,0 UV-I 5,9 C 8,6 C 0,0 km/h (0 Bft)
25.09.2012 05:40 8,4 C 19,8 C 9,2 C 8,6 C 8,6 C 0,2 C 84 % 87 % 0 % 1005,7 hPa 0,0 l/m 0,2 km/h (0 Bft) O 90 0 min 0,0 UV-I 5,9 C 8,6 C 0,0 km/h (0 Bft)
25.09.2012 05:45 8,4 C 19,8 C 9,2 C 8,6 C 8,6 C 0,2 C 84 % 87 % 0 % 1005,7 hPa 0,0 l/m 0,2 km/h (0 Bft) W 270 0 min 0,0 UV-I 5,9 C 8,6 C 0,0 km/h (0 Bft)
25.09.2012 05:50 8,3 C 19,8 C 9,3 C 8,3 C 8,3 C 0,0 C 84 % 87 % 0 % 1005,7 hPa 0,0 l/m 0,2 km/h (0 Bft) N-NO 22 0 min 0,0 UV-I 5,8 C 8,3 C 0,0 km/h (0 Bft)
25.09.2012 05:55 8,3 C 19,8 C 9,2 C 8,3 C 8,3 C 0,0 C 84 % 87 % 0 % 1005,7 hPa 0,0 l/m 0,0 km/h (0 Bft) N 360 0 min 0,0 UV-I 5,8 C 8,3 C 0,0 km/h (0 Bft)
25.09.2012 06:00 8,1 C 19,8 C 9,2 C 8,3 C 8,3 C 0,2 C 84 % 87 % 0 % 1005,6 hPa 0,0 l/m 0,2 km/h (0 Bft) SW 225 0 min 0,0 UV-I 5,6 C 8,3 C 0,0 km/h (0 Bft)
25.09.2012 06:05 8,0 C 19,8 C 9,1 C 8,3 C 8,3 C 0,3 C 84 % 87 % 0 % 1005,6 hPa 0,0 l/m 0,2 km/h (0 Bft) SW 225 0 min 0,0 UV-I 5,5 C 8,3 C 0,0 km/h (0 Bft)
25.09.2012 06:10 8,0 C 19,7 C 9,2 C 8,3 C 8,3 C 0,3 C 84 % 88 % 0 % 1005,6 hPa 0,0 l/m 0,0 km/h (0 Bft) S 180 0 min 0,0 UV-I 5,5 C 8,3 C 0,0 km/h (0 Bft)
25.09.2012 06:15 8,0 C 19,7 C 9,1 C 8,2 C 8,2 C 0,2 C 84 % 88 % 0 % 1005,6 hPa 0,0 l/m 0,0 km/h (0 Bft) W 270 0 min 0,0 UV-I 5,5 C 8,2 C 0,0 km/h (0 Bft)
25.09.2012 06:20 7,9 C 19,7 C 9,2 C 8,2 C 8,2 C 0,3 C 85 % 88 % 0 % 1005,3 hPa 0,0 l/m 0,0 km/h (0 Bft) W 270 0 min 0,0 UV-I 5,5 C 8,2 C 0,0 km/h (0 Bft)
25.09.2012 06:25 8,0 C 19,7 C 9,2 C 8,2 C 8,2 C 0,2 C 85 % 88 % 0 % 1005,3 hPa 0,0 l/m 0,0 km/h (0 Bft) W 270 0 min 0,0 UV-I 5,6 C 8,2 C 0,0 km/h (0 Bft)
25.09.2012 06:30 7,9 C 19,7 C 9,2 C 8,2 C 8,2 C 0,3 C 85 % 88 % 0 % 1005,3 hPa 0,0 l/m 0,0 km/h (0 Bft) W 270 0 min 0,0 UV-I 5,5 C 8,2 C 0,0 km/h (0 Bft)
25.09.2012 06:35 7,9 C 19,7 C 9,2 C 8,0 C 8,0 C 0,1 C 85 % 88 % 0 % 1005,3 hPa 0,0 l/m 0,0 km/h (0 Bft) W 270 0 min 0,0 UV-I 5,5 C 8,0 C 0,0 km/h (0 Bft)
25.09.2012 06:46 7,9 C 19,7 C 9,2 C 8,2 C 8,2 C 0,3 C 86 % 88 % 0 % 1005,6 hPa 0,0 l/m 0,0 km/h (0 Bft) N 0 0 min 0,0 UV-I 5,7 C 8,2 C 0,0 km/h (0 Bft)
25.09.2012 06:55 7,9 C 19,7 C 9,1 C 8,1 C 8,1 C 0,2 C 86 % 88 % 0 % 1005,6 hPa 0,0 l/m 0,0 km/h (0 Bft) W 270 0 min 0,0 UV-I 5,7 C 8,1 C 0,0 km/h (0 Bft)
25.09.2012 07:00 7,9 C 19,7 C 9,0 C 8,3 C 8,3 C 0,4 C 86 % 88 % 0 % 1005,1 hPa 0,0 l/m 0,0 km/h (0 Bft) O 90 0 min 0,0 UV-I 5,7 C 8,3 C 0,0 km/h (0 Bft)
25.09.2012 07:05 7,9 C 19,7 C 9,2 C 8,3 C 8,3 C 0,4 C 86 % 89 % 0 % 1005,1 hPa 0,0 l/m 0,2 km/h (0 Bft) SW 225 0 min 0,0 UV-I 5,7 C 8,3 C 0,0 km/h (0 Bft)
25.09.2012 07:10 7,8 C 19,7 C 9,1 C 8,3 C 8,3 C 0,5 C 86 % 89 % 0 % 1005,1 hPa 0,0 l/m 0,0 km/h (0 Bft) W-SW 247 0 min 0,0 UV-I 5,6 C 8,3 C 0,0 km/h (0 Bft)
25.09.2012 07:15 7,9 C 19,6 C 9,2 C 8,3 C 8,3 C 0,4 C 86 % 89 % 11 % 1005,1 hPa 0,0 l/m 0,0 km/h (0 Bft) SW 225 5 min 0,0 UV-I 5,7 C 8,3 C 0,0 km/h (0 Bft)
25.09.2012 07:20 7,8 C 19,6 C 9,2 C 8,3 C 8,3 C 0,5 C 86 % 89 % 13 % 1005,1 hPa 0,0 l/m 0,0 km/h (0 Bft) W 270 5 min 0,0 UV-I 5,6 C 8,3 C 0,0 km/h (0 Bft)
25.09.2012 07:25 7,8 C 19,6 C 9,3 C 8,9 C 8,9 C 1,1 C 86 % 89 % 29 % 1005,1 hPa 0,0 l/m 0,0 km/h (0 Bft) O-NO 67 5 min 0,0 UV-I 5,6 C 8,9 C 0,0 km/h (0 Bft)
25.09.2012 07:30 7,9 C 19,6 C 9,3 C 10,1 C 10,1 C 2,2 C 86 % 89 % 58 % 1005,1 hPa 0,0 l/m 0,0 km/h (0 Bft) N-NO 22 5 min 0,0 UV-I 5,7 C 10,1 C 0,0 km/h (0 Bft)
25.09.2012 07:35 7,9 C 19,6 C 9,6 C 11,8 C 11,8 C 3,9 C 86 % 89 % 100 % 1005,1 hPa 0,0 l/m 0,0 km/h (0 Bft) NW 315 5 min 0,0 UV-I 5,7 C 11,8 C 0,0 km/h (0 Bft)
25.09.2012 07:40 8,0 C 19,6 C 9,6 C 12,9 C 12,9 C 4,9 C 87 % 89 % 100 % 1005,0 hPa 0,0 l/m 0,0 km/h (0 Bft) NW 315 5 min 0,0 UV-I 6,0 C 12,9 C 0,0 km/h (0 Bft)
25.09.2012 07:45 8,4 C 19,6 C 9,9 C 14,5 C 14,5 C 6,1 C 88 % 89 % 100 % 1005,0 hPa 0,0 l/m 0,0 km/h (0 Bft) W-SW 247 5 min 0,0 UV-I 6,5 C 14,5 C 0,0 km/h (0 Bft)
25.09.2012 07:50 8,7 C 19,5 C 10,0 C 15,6 C 15,6 C 6,9 C 88 % 89 % 100 % 1005,0 hPa 0,0 l/m 0,0 km/h (0 Bft) W-NW 292 5 min 0,0 UV-I 6,8 C 15,6 C 0,0 km/h (0 Bft)
25.09.2012 07:55 9,2 C 19,5 C 10,3 C 16,9 C 16,9 C 7,7 C 88 % 89 % 100 % 1005,0 hPa 0,0 l/m 0,0 km/h (0 Bft) NW 315 5 min 0,0 UV-I 7,3 C 16,9 C 0,0 km/h (0 Bft)
25.09.2012 08:00 9,7 C 19,5 C 10,4 C 17,8 C 17,8 C 8,1 C 89 % 89 % 100 % 1004,3 hPa 0,0 l/m 0,0 km/h (0 Bft) W-SW 247 5 min 0,0 UV-I 8,0 C 17,8 C 0,0 km/h (0 Bft)
25.09.2012 08:05 10,1 C 19,4 C 10,7 C 18,6 C 18,6 C 8,5 C 87 % 89 % 100 % 1004,3 hPa 0,0 l/m 0,5 km/h (0 Bft) N-NO 22 5 min 0,0 UV-I 8,0 C 18,6 C 0,0 km/h (0 Bft)
25.09.2012 08:10 10,7 C 19,4 C 10,8 C 19,0 C 19,0 C 8,3 C 86 % 89 % 100 % 1004,3 hPa 0,0 l/m 0,8 km/h (0 Bft) NO 45 5 min 0,0 UV-I 8,5 C 19,0 C 3,1 km/h (1 Bft)
25.09.2012 08:15 11,5 C 19,3 C 11,3 C 18,9 C 18,9 C 7,4 C 85 % 89 % 100 % 1004,3 hPa 0,0 l/m 0,8 km/h (0 Bft) NO 45 5 min 0,0 UV-I 9,1 C 18,9 C 1,9 km/h (1 Bft)
25.09.2012 08:20 11,9 C 19,4 C 11,6 C 17,7 C 17,7 C 5,8 C 83 % 89 % 100 % 1004,5 hPa 0,0 l/m 0,6 km/h (0 Bft) S-SW 202 5 min 0,0 UV-I 9,1 C 17,7 C 0,0 km/h (0 Bft)
25.09.2012 08:25 12,3 C 19,3 C 12,0 C 16,6 C 16,6 C 4,3 C 81 % 88 % 100 % 1004,5 hPa 0,0 l/m 0,2 km/h (0 Bft) O-SO 112 5 min 0,0 UV-I 9,1 C 16,6 C 1,9 km/h (1 Bft)
25.09.2012 08:30 12,6 C 19,3 C 12,2 C 16,1 C 16,1 C 3,5 C 80 % 88 % 92 % 1004,5 hPa 0,0 l/m 0,3 km/h (0 Bft) O-NO 67 5 min 0,0 UV-I 9,2 C 16,1 C 2,6 km/h (1 Bft)
25.09.2012 08:35 12,9 C 19,3 C 12,5 C 15,7 C 15,7 C 2,8 C 79 % 88 % 74 % 1004,5 hPa 0,0 l/m 1,0 km/h (0 Bft) NO 45 5 min 0,0 UV-I 9,3 C 15,7 C 2,3 km/h (1 Bft)
25.09.2012 08:40 13,2 C 19,3 C 12,4 C 15,6 C 15,6 C 2,4 C 78 % 87 % 63 % 1004,6 hPa 0,0 l/m 1,6 km/h (1 Bft) O-NO 67 0 min 0,0 UV-I 9,4 C 15,6 C 3,7 km/h (1 Bft)
25.09.2012 08:45 13,5 C 19,3 C 12,6 C 15,5 C 15,5 C 2,0 C 78 % 87 % 53 % 1004,6 hPa 0,0 l/m 1,6 km/h (1 Bft) O-NO 67 0 min 0,0 UV-I 9,7 C 15,5 C 3,5 km/h (1 Bft)
25.09.2012 08:50 13,7 C 19,3 C 12,8 C 15,6 C 15,6 C 1,9 C 77 % 87 % 50 % 1004,6 hPa 0,0 l/m 1,4 km/h (1 Bft) O-NO 67 0 min 0,0 UV-I 9,7 C 15,6 C 2,6 km/h (1 Bft)
25.09.2012 08:55 13,9 C 19,3 C 12,9 C 15,6 C 15,6 C 1,7 C 77 % 86 % 45 % 1004,6 hPa 0,0 l/m 1,0 km/h (0 Bft) NO 45 0 min 0,1 UV-I 9,9 C 15,6 C 1,6 km/h (1 Bft)
25.09.2012 09:00 13,9 C 19,3 C 13,1 C 15,7 C 15,7 C 1,8 C 76 % 86 % 47 % 1004,6 hPa 0,0 l/m 0,5 km/h (0 Bft) NW 315 0 min 0,1 UV-I 9,7 C 15,7 C 0,0 km/h (0 Bft)
25.09.2012 09:05 14,0 C 19,3 C 13,1 C 16,1 C 16,1 C 2,1 C 76 % 86 % 55 % 1004,6 hPa 0,0 l/m 0,2 km/h (0 Bft) W-NW 292 0 min 0,1 UV-I 9,8 C 16,1 C 0,0 km/h (0 Bft)
25.09.2012 09:10 14,1 C 19,3 C 13,2 C 17,0 C 17,0 C 2,9 C 77 % 86 % 76 % 1004,6 hPa 0,0 l/m 0,2 km/h (0 Bft) O-NO 67 0 min 0,1 UV-I 10,1 C 17,0 C 2,3 km/h (1 Bft)
25.09.2012 09:15 14,4 C 19,3 C 13,2 C 16,8 C 16,8 C 2,4 C 76 % 86 % 63 % 1004,6 hPa 0,0 l/m 0,3 km/h (0 Bft) O-SO 112 0 min 0,2 UV-I 10,2 C 16,8 C 0,0 km/h (0 Bft)
25.09.2012 09:20 14,5 C 19,3 C 13,2 C 16,3 C 16,3 C 1,8 C 76 % 85 % 47 % 1004,8 hPa 0,0 l/m 0,3 km/h (0 Bft) O-NO 67 0 min 0,2 UV-I 10,3 C 16,3 C 0,0 km/h (0 Bft)
25.09.2012 09:25 14,5 C 19,3 C 13,2 C 15,8 C 15,8 C 1,3 C 75 % 86 % 34 % 1004,8 hPa 0,0 l/m 0,0 km/h (0 Bft) S-SO 157 0 min 0,2 UV-I 10,1 C 15,8 C 0,0 km/h (0 Bft)
25.09.2012 09:30 14,4 C 19,3 C 13,2 C 15,9 C 15,9 C 1,5 C 76 % 86 % 39 % 1004,8 hPa 0,0 l/m 0,0 km/h (0 Bft) W-SW 247 0 min 0,3 UV-I 10,2 C 15,9 C 0,0 km/h (0 Bft)
25.09.2012 09:35 14,4 C 19,3 C 13,5 C 16,4 C 16,4 C 2,0 C 76 % 86 % 53 % 1004,8 hPa 0,0 l/m 0,2 km/h (0 Bft) SW 225 0 min 0,4 UV-I 10,2 C 16,4 C 2,9 km/h (1 Bft)
25.09.2012 09:40 14,5 C 19,2 C 13,6 C 16,6 C 16,6 C 2,1 C 76 % 86 % 55 % 1004,7 hPa 0,0 l/m 0,8 km/h (0 Bft) W-SW 247 0 min 0,4 UV-I 10,3 C 16,6 C 2,1 km/h (1 Bft)
25.09.2012 09:45 14,7 C 19,2 C 13,9 C 17,2 C 17,2 C 2,5 C 76 % 86 % 66 % 1004,7 hPa 0,0 l/m 1,1 km/h (1 Bft) W-SW 247 0 min 0,5 UV-I 10,5 C 17,2 C 2,6 km/h (1 Bft)
25.09.2012 09:50 14,8 C 19,2 C 14,0 C 17,7 C 17,7 C 2,9 C 75 % 86 % 76 % 1004,7 hPa 0,0 l/m 1,3 km/h (1 Bft) W 270 0 min 0,6 UV-I 10,4 C 17,7 C 1,6 km/h (1 Bft)
25.09.2012 09:55 15,3 C 19,2 C 14,4 C 18,1 C 18,1 C 2,8 C 75 % 86 % 74 % 1004,7 hPa 0,0 l/m 1,0 km/h (0 Bft) W-NW 292 0 min 0,7 UV-I 10,9 C 18,1 C 0,0 km/h (0 Bft)
25.09.2012 10:00 15,5 C 19,2 C 14,5 C 18,4 C 18,4 C 2,9 C 75 % 86 % 76 % 1004,8 hPa 0,0 l/m 0,5 km/h (0 Bft) SO 135 0 min 0,7 UV-I 11,1 C 18,4 C 0,0 km/h (0 Bft)
25.09.2012 10:05 15,9 C 19,2 C 14,9 C 18,6 C 18,6 C 2,7 C 73 % 85 % 71 % 1004,8 hPa 0,0 l/m 1,1 km/h (1 Bft) O-NO 67 0 min 0,6 UV-I 11,1 C 18,6 C 2,1 km/h (1 Bft)
25.09.2012 10:10 16,1 C 19,2 C 14,8 C 19,0 C 19,0 C 2,9 C 73 % 85 % 76 % 1004,8 hPa 0,0 l/m 1,0 km/h (0 Bft) O-NO 67 0 min 0,6 UV-I 11,3 C 19,0 C 0,0 km/h (0 Bft)
25.09.2012 10:15 16,3 C 19,1 C 15,2 C 18,7 C 18,7 C 2,4 C 72 % 84 % 63 % 1004,8 hPa 0,0 l/m 0,3 km/h (0 Bft) W-SW 247 0 min 0,7 UV-I 11,2 C 18,7 C 1,6 km/h (1 Bft)
25.09.2012 10:20 16,4 C 19,1 C 15,5 C 18,5 C 18,5 C 2,1 C 71 % 84 % 55 % 1004,9 hPa 0,0 l/m 0,6 km/h (0 Bft) S-SW 202 0 min 0,7 UV-I 11,1 C 18,5 C 1,9 km/h (1 Bft)
25.09.2012 10:25 16,6 C 19,1 C 15,6 C 18,6 C 18,6 C 2,0 C 71 % 83 % 53 % 1004,9 hPa 0,0 l/m 1,0 km/h (0 Bft) SO 135 0 min 0,8 UV-I 11,3 C 18,6 C 2,1 km/h (1 Bft)
25.09.2012 10:30 16,7 C 19,1 C 15,7 C 18,6 C 18,6 C 1,9 C 70 % 82 % 50 % 1004,9 hPa 0,0 l/m 0,8 km/h (0 Bft) S-SW 202 0 min 0,9 UV-I 11,2 C 18,6 C 0,0 km/h (0 Bft)
25.09.2012 10:35 17,0 C 19,1 C 16,0 C 18,7 C 18,7 C 1,7 C 69 % 81 % 45 % 1004,9 hPa 0,0 l/m 1,6 km/h (1 Bft) O-NO 67 0 min 0,9 UV-I 11,3 C 18,7 C 3,5 km/h (1 Bft)
25.09.2012 10:40 17,2 C 19,1 C 16,0 C 18,8 C 18,8 C 1,6 C 69 % 81 % 42 % 1005,0 hPa 0,0 l/m 1,8 km/h (1 Bft) S 180 0 min 1,0 UV-I 11,5 C 18,8 C 2,3 km/h (1 Bft)
25.09.2012 10:45 17,5 C 19,1 C 16,1 C 19,2 C 19,2 C 1,7 C 68 % 80 % 45 % 1005,0 hPa 0,0 l/m 1,4 km/h (1 Bft) S 180 0 min 1,0 UV-I 11,5 C 19,2 C 3,4 km/h (1 Bft)
25.09.2012 10:50 17,6 C 19,1 C 16,3 C 19,3 C 19,3 C 1,7 C 69 % 80 % 45 % 1005,0 hPa 0,0 l/m 0,8 km/h (0 Bft) W-SW 247 0 min 1,1 UV-I 11,8 C 19,3 C 0,0 km/h (0 Bft)
25.09.2012 10:55 17,9 C 19,1 C 16,5 C 19,6 C 19,6 C 1,7 C 68 % 80 % 45 % 1005,0 hPa 0,0 l/m 1,0 km/h (0 Bft) SO 135 0 min 1,1 UV-I 11,9 C 19,6 C 1,8 km/h (1 Bft)
25.09.2012 11:00 18,1 C 19,1 C 16,5 C 19,7 C 19,7 C 1,6 C 67 % 79 % 42 % 1004,6 hPa 0,0 l/m 1,4 km/h (1 Bft) S 180 0 min 1,1 UV-I 11,9 C 19,7 C 4,8 km/h (1 Bft)
25.09.2012 11:05 18,3 C 19,1 C 16,7 C 20,0 C 20,0 C 1,7 C 67 % 79 % 45 % 1004,6 hPa 0,0 l/m 1,3 km/h (1 Bft) SO 135 0 min 1,2 UV-I 12,1 C 20,0 C 0,0 km/h (0 Bft)
25.09.2012 11:10 18,5 C 19,1 C 16,8 C 20,4 C 20,4 C 1,9 C 65 % 78 % 50 % 1004,6 hPa 0,0 l/m 1,6 km/h (1 Bft) S-SO 157 0 min 1,3 UV-I 11,8 C 20,4 C 2,1 km/h (1 Bft)
25.09.2012 11:15 18,7 C 19,1 C 17,2 C 20,8 C 20,8 C 2,1 C 64 % 77 % 55 % 1004,6 hPa 0,0 l/m 2,4 km/h (1 Bft) W-SW 247 0 min 1,3 UV-I 11,7 C 20,8 C 2,9 km/h (1 Bft)
25.09.2012 11:20 18,8 C 19,0 C 17,2 C 20,9 C 20,9 C 2,1 C 63 % 76 % 55 % 1004,6 hPa 0,0 l/m 2,4 km/h (1 Bft) S 180 0 min 1,4 UV-I 11,6 C 20,9 C 3,2 km/h (1 Bft)
25.09.2012 11:25 19,0 C 19,1 C 17,5 C 21,1 C 21,1 C 2,1 C 63 % 75 % 55 % 1004,6 hPa 0,0 l/m 2,3 km/h (1 Bft) S-SO 157 0 min 1,4 UV-I 11,8 C 21,1 C 4,5 km/h (1 Bft)
25.09.2012 11:30 19,1 C 19,1 C 17,6 C 21,2 C 21,2 C 2,1 C 62 % 74 % 55 % 1004,6 hPa 0,0 l/m 3,1 km/h (1 Bft) N-NW 337 0 min 1,4 UV-I 11,6 C 21,2 C 6,4 km/h (2 Bft)
25.09.2012 11:35 19,2 C 19,1 C 17,7 C 21,3 C 21,3 C 2,1 C 61 % 73 % 55 % 1004,6 hPa 0,0 l/m 3,5 km/h (1 Bft) N-NO 22 0 min 1,3 UV-I 11,5 C 21,3 C 4,8 km/h (1 Bft)
25.09.2012 11:40 19,3 C 19,1 C 17,9 C 21,4 C 21,4 C 2,1 C 62 % 73 % 55 % 1004,4 hPa 0,0 l/m 2,6 km/h (1 Bft) SW 225 0 min 1,5 UV-I 11,8 C 21,4 C 17,4 km/h (3 Bft)
25.09.2012 11:45 19,5 C 19,1 C 18,0 C 21,4 C 21,4 C 1,9 C 60 % 71 % 50 % 1004,4 hPa 0,0 l/m 2,7 km/h (1 Bft) S 180 0 min 1,5 UV-I 11,5 C 21,4 C 3,5 km/h (1 Bft)
25.09.2012 11:50 19,5 C 19,1 C 18,0 C 21,4 C 21,4 C 1,9 C 60 % 71 % 50 % 1004,4 hPa 0,0 l/m 3,2 km/h (1 Bft) S 180 0 min 1,5 UV-I 11,5 C 21,4 C 2,6 km/h (1 Bft)
25.09.2012 11:55 19,6 C 19,1 C 18,2 C 21,5 C 21,5 C 1,9 C 60 % 70 % 50 % 1004,4 hPa 0,0 l/m 2,3 km/h (1 Bft) S-SO 157 0 min 1,5 UV-I 11,6 C 21,5 C 4,7 km/h (1 Bft)
25.09.2012 12:00 19,6 C 19,1 C 18,3 C 21,6 C 21,6 C 2,0 C 60 % 70 % 53 % 1005,0 hPa 0,0 l/m 2,3 km/h (1 Bft) O-SO 112 0 min 1,4 UV-I 11,6 C 21,6 C 2,4 km/h (1 Bft)
25.09.2012 12:05 19,7 C 19,1 C 18,3 C 21,6 C 21,6 C 1,9 C 60 % 69 % 50 % 1005,0 hPa 0,0 l/m 2,1 km/h (1 Bft) NW 315 0 min 1,4 UV-I 11,7 C 21,6 C 0,0 km/h (0 Bft)
25.09.2012 12:10 19,9 C 19,2 C 18,4 C 21,8 C 21,8 C 1,9 C 59 % 70 % 50 % 1005,0 hPa 0,0 l/m 1,9 km/h (1 Bft) W-SW 247 0 min 1,6 UV-I 11,6 C 21,8 C 4,3 km/h (1 Bft)
25.09.2012 12:15 19,7 C 19,2 C 18,4 C 21,8 C 21,8 C 2,1 C 59 % 69 % 55 % 1005,0 hPa 0,0 l/m 2,7 km/h (1 Bft) O-SO 112 0 min 1,7 UV-I 11,5 C 21,8 C 2,6 km/h (1 Bft)
25.09.2012 12:20 19,9 C 19,2 C 18,5 C 21,8 C 21,8 C 1,9 C 59 % 68 % 50 % 1004,8 hPa 0,0 l/m 3,2 km/h (1 Bft) S 180 0 min 1,6 UV-I 11,6 C 21,8 C 2,4 km/h (1 Bft)
25.09.2012 12:25 19,9 C 19,2 C 18,6 C 21,8 C 21,8 C 1,9 C 58 % 69 % 50 % 1004,8 hPa 0,0 l/m 3,1 km/h (1 Bft) SO 135 0 min 1,6 UV-I 11,4 C 21,8 C 3,4 km/h (1 Bft)
25.09.2012 12:30 19,8 C 19,2 C 18,7 C 21,8 C 21,8 C 2,0 C 59 % 69 % 53 % 1004,8 hPa 0,0 l/m 3,2 km/h (1 Bft) O-SO 112 0 min 1,6 UV-I 11,6 C 21,8 C 5,6 km/h (1 Bft)
25.09.2012 12:35 19,9 C 19,2 C 18,7 C 22,3 C 22,3 C 2,4 C 60 % 68 % 63 % 1004,8 hPa 0,0 l/m 2,3 km/h (1 Bft) N 360 0 min 1,7 UV-I 11,9 C 22,3 C 3,4 km/h (1 Bft)
25.09.2012 12:46 20,3 C 19,2 C 19,0 C 23,5 C 23,5 C 3,2 C 60 % 70 % 84 % 1004,6 hPa 0,0 l/m 1,8 km/h (1 Bft) N 0 0 min 2,4 UV-I 12,3 C 23,5 C 5,1 km/h (1 Bft)
25.09.2012 12:55 20,5 C 19,3 C 19,0 C 23,2 C 23,2 C 2,7 C 58 % 68 % 71 % 1004,6 hPa 0,0 l/m 2,3 km/h (1 Bft) S 180 0 min 2,0 UV-I 11,9 C 23,2 C 2,1 km/h (1 Bft)
25.09.2012 13:00 20,4 C 19,3 C 19,1 C 23,1 C 23,1 C 2,7 C 57 % 66 % 71 % 1004,4 hPa 0,0 l/m 2,6 km/h (1 Bft) S-SW 202 0 min 2,0 UV-I 11,6 C 23,1 C 0,0 km/h (0 Bft)
25.09.2012 13:05 20,4 C 19,3 C 19,2 C 23,7 C 23,7 C 3,3 C 58 % 68 % 87 % 1004,4 hPa 0,0 l/m 2,4 km/h (1 Bft) S-SO 157 5 min 2,2 UV-I 11,9 C 23,7 C 2,7 km/h (1 Bft)
25.09.2012 13:10 20,6 C 19,3 C 19,4 C 24,3 C 24,3 C 3,7 C 58 % 68 % 97 % 1004,4 hPa 0,0 l/m 1,6 km/h (1 Bft) S-SO 157 5 min 2,6 UV-I 12,0 C 24,3 C 1,9 km/h (1 Bft)
25.09.2012 13:15 21,1 C 19,3 C 19,5 C 25,6 C 25,6 C 4,5 C 58 % 68 % 100 % 1004,4 hPa 0,0 l/m 2,1 km/h (1 Bft) W-SW 247 5 min 3,1 UV-I 12,5 C 25,6 C 0,0 km/h (0 Bft)
25.09.2012 13:20 21,4 C 19,3 C 19,6 C 26,3 C 26,3 C 4,9 C 57 % 69 % 100 % 1004,8 hPa 0,0 l/m 1,6 km/h (1 Bft) O-SO 112 5 min 3,1 UV-I 12,5 C 26,3 C 1,8 km/h (1 Bft)
25.09.2012 13:25 21,6 C 19,3 C 19,7 C 27,1 C 27,1 C 5,5 C 57 % 66 % 100 % 1004,8 hPa 0,0 l/m 0,8 km/h (0 Bft) W 270 5 min 2,2 UV-I 12,7 C 27,1 C 0,0 km/h (0 Bft)
25.09.2012 13:30 21,5 C 19,3 C 19,7 C 27,4 C 27,4 C 5,9 C 56 % 67 % 100 % 1004,8 hPa 0,0 l/m 1,4 km/h (1 Bft) SO 135 5 min 2,3 UV-I 12,3 C 27,4 C 6,4 km/h (2 Bft)
25.09.2012 13:35 21,5 C 19,3 C 19,9 C 27,7 C 27,7 C 6,2 C 55 % 65 % 100 % 1004,8 hPa 0,0 l/m 1,8 km/h (1 Bft) W-NW 292 5 min 2,7 UV-I 12,1 C 27,7 C 3,9 km/h (1 Bft)
25.09.2012 13:40 21,5 C 19,3 C 20,1 C 27,6 C 27,6 C 6,1 C 53 % 64 % 100 % 1004,3 hPa 0,0 l/m 2,9 km/h (1 Bft) SO 135 5 min 2,4 UV-I 11,5 C 27,6 C 5,5 km/h (1 Bft)
25.09.2012 13:45 21,6 C 19,3 C 20,0 C 27,3 C 27,3 C 5,7 C 53 % 64 % 100 % 1004,3 hPa 0,0 l/m 3,4 km/h (1 Bft) S-SW 202 5 min 2,0 UV-I 11,6 C 27,3 C 6,8 km/h (2 Bft)
25.09.2012 13:50 21,6 C 19,3 C 20,1 C 27,3 C 27,3 C 5,7 C 54 % 62 % 100 % 1004,3 hPa 0,0 l/m 2,7 km/h (1 Bft) S 180 5 min 1,8 UV-I 11,9 C 27,3 C 6,1 km/h (2 Bft)
25.09.2012 13:55 21,8 C 19,4 C 20,5 C 27,5 C 27,5 C 5,7 C 53 % 62 % 100 % 1004,3 hPa 0,0 l/m 2,4 km/h (1 Bft) SW 225 5 min 1,8 UV-I 11,8 C 27,5 C 6,3 km/h (2 Bft)
25.09.2012 14:00 21,8 C 19,4 C 20,4 C 27,4 C 27,4 C 5,6 C 51 % 60 % 100 % 1004,2 hPa 0,0 l/m 2,3 km/h (1 Bft) O-SO 112 5 min 1,7 UV-I 11,2 C 27,4 C 5,5 km/h (1 Bft)
25.09.2012 14:05 21,8 C 19,4 C 20,3 C 25,8 C 25,8 C 4,0 C 52 % 61 % 100 % 1004,2 hPa 0,0 l/m 2,6 km/h (1 Bft) O-SO 112 5 min 1,5 UV-I 11,5 C 25,8 C 2,1 km/h (1 Bft)
25.09.2012 14:10 21,9 C 19,4 C 20,3 C 25,3 C 25,3 C 3,4 C 52 % 63 % 89 % 1004,2 hPa 0,0 l/m 2,1 km/h (1 Bft) S-SO 157 5 min 1,6 UV-I 11,6 C 25,3 C 12,9 km/h (3 Bft)
25.09.2012 14:15 21,8 C 19,4 C 20,5 C 25,5 C 25,5 C 3,7 C 52 % 60 % 97 % 1004,2 hPa 0,0 l/m 1,8 km/h (1 Bft) NW 315 5 min 1,8 UV-I 11,5 C 25,5 C 3,7 km/h (1 Bft)
25.09.2012 14:20 22,0 C 19,5 C 20,7 C 26,0 C 26,0 C 4,0 C 51 % 60 % 100 % 1004,1 hPa 0,0 l/m 2,6 km/h (1 Bft) S-SW 202 5 min 1,8 UV-I 11,4 C 26,0 C 6,0 km/h (2 Bft)
25.09.2012 14:25 22,0 C 19,5 C 20,7 C 26,2 C 26,2 C 4,2 C 52 % 61 % 100 % 1004,1 hPa 0,0 l/m 3,1 km/h (1 Bft) O 90 5 min 1,8 UV-I 11,7 C 26,2 C 1,9 km/h (1 Bft)
25.09.2012 14:30 22,1 C 19,5 C 20,7 C 26,1 C 26,1 C 4,0 C 53 % 62 % 100 % 1004,1 hPa 0,0 l/m 2,4 km/h (1 Bft) NO 45 5 min 1,6 UV-I 12,1 C 26,1 C 0,0 km/h (0 Bft)
25.09.2012 14:35 22,2 C 19,5 C 20,8 C 26,5 C 26,5 C 4,3 C 54 % 63 % 100 % 1004,1 hPa 0,0 l/m 0,5 km/h (0 Bft) NW 315 5 min 1,6 UV-I 12,4 C 26,5 C 1,6 km/h (1 Bft)
25.09.2012 14:40 22,3 C 19,5 C 20,7 C 26,6 C 26,6 C 4,3 C 53 % 62 % 100 % 1003,9 hPa 0,0 l/m 0,6 km/h (0 Bft) SW 225 5 min 1,7 UV-I 12,2 C 26,6 C 1,9 km/h (1 Bft)
25.09.2012 14:45 22,3 C 19,6 C 20,7 C 26,2 C 26,2 C 3,9 C 52 % 61 % 100 % 1003,9 hPa 0,0 l/m 1,6 km/h (1 Bft) SW 225 5 min 1,5 UV-I 12,0 C 26,2 C 1,8 km/h (1 Bft)
25.09.2012 14:50 22,3 C 19,6 C 20,8 C 26,2 C 26,2 C 3,9 C 52 % 61 % 100 % 1003,9 hPa 0,0 l/m 1,6 km/h (1 Bft) NO 45 5 min 1,5 UV-I 12,0 C 26,2 C 0,0 km/h (0 Bft)
25.09.2012 14:55 22,4 C 19,6 C 20,9 C 26,4 C 26,4 C 4,0 C 52 % 62 % 100 % 1003,9 hPa 0,0 l/m 1,1 km/h (1 Bft) O-SO 112 5 min 1,5 UV-I 12,1 C 26,4 C 2,4 km/h (1 Bft)
25.09.2012 15:00 22,4 C 19,6 C 20,9 C 26,4 C 26,4 C 4,0 C 52 % 61 % 100 % 1003,9 hPa 0,0 l/m 1,0 km/h (0 Bft) SO 135 5 min 1,6 UV-I 12,1 C 26,4 C 2,4 km/h (1 Bft)
25.09.2012 15:05 22,4 C 19,6 C 20,8 C 25,8 C 25,8 C 3,4 C 52 % 61 % 89 % 1003,9 hPa 0,0 l/m 1,9 km/h (1 Bft) S 180 5 min 1,6 UV-I 12,1 C 25,8 C 3,2 km/h (1 Bft)
25.09.2012 15:10 22,4 C 19,7 C 20,9 C 25,7 C 25,7 C 3,3 C 51 % 61 % 87 % 1003,9 hPa 0,0 l/m 1,8 km/h (1 Bft) S-SO 157 5 min 1,3 UV-I 11,8 C 25,7 C 2,9 km/h (1 Bft)
25.09.2012 15:15 22,5 C 19,7 C 21,0 C 25,7 C 25,7 C 3,2 C 51 % 60 % 84 % 1003,9 hPa 0,0 l/m 2,3 km/h (1 Bft) W-SW 247 0 min 1,5 UV-I 11,8 C 25,7 C 3,5 km/h (1 Bft)
25.09.2012 15:20 22,7 C 19,7 C 21,2 C 26,1 C 26,1 C 3,4 C 51 % 61 % 89 % 1003,9 hPa 0,0 l/m 2,7 km/h (1 Bft) SO 135 5 min 1,4 UV-I 12,0 C 26,1 C 2,3 km/h (1 Bft)
25.09.2012 15:25 22,7 C 19,7 C 21,2 C 26,6 C 26,6 C 3,9 C 50 % 58 % 100 % 1003,9 hPa 0,0 l/m 1,9 km/h (1 Bft) O-NO 67 5 min 1,3 UV-I 11,7 C 26,6 C 3,7 km/h (1 Bft)
25.09.2012 15:30 22,8 C 19,7 C 21,2 C 26,6 C 26,6 C 3,8 C 49 % 59 % 100 % 1003,9 hPa 0,0 l/m 1,3 km/h (1 Bft) O-NO 67 5 min 1,2 UV-I 11,5 C 26,6 C 5,5 km/h (1 Bft)
25.09.2012 15:35 23,0 C 19,8 C 21,3 C 26,7 C 26,7 C 3,7 C 49 % 59 % 97 % 1003,9 hPa 0,0 l/m 2,6 km/h (1 Bft) O 90 5 min 1,2 UV-I 11,7 C 26,7 C 1,8 km/h (1 Bft)
25.09.2012 15:40 23,3 C 19,8 C 21,3 C 26,9 C 26,9 C 3,6 C 49 % 58 % 95 % 1003,9 hPa 0,0 l/m 3,4 km/h (1 Bft) O-SO 112 5 min 1,2 UV-I 12,0 C 26,9 C 5,6 km/h (1 Bft)
25.09.2012 15:45 23,5 C 19,8 C 21,5 C 27,4 C 27,4 C 3,9 C 48 % 57 % 100 % 1003,9 hPa 0,0 l/m 1,6 km/h (1 Bft) S 180 5 min 1,2 UV-I 11,8 C 27,4 C 1,6 km/h (1 Bft)
25.09.2012 15:50 23,6 C 19,8 C 21,5 C 27,9 C 27,9 C 4,3 C 49 % 58 % 100 % 1003,9 hPa 0,0 l/m 1,3 km/h (1 Bft) SO 135 5 min 1,1 UV-I 12,2 C 27,9 C 1,8 km/h (1 Bft)
25.09.2012 15:55 23,8 C 19,8 C 21,6 C 28,9 C 28,9 C 5,1 C 48 % 58 % 100 % 1003,9 hPa 0,0 l/m 1,0 km/h (0 Bft) N-NW 337 5 min 1,1 UV-I 12,1 C 28,9 C 3,5 km/h (1 Bft)
25.09.2012 16:00 23,9 C 19,8 C 21,6 C 29,0 C 29,0 C 5,1 C 48 % 57 % 100 % 1003,9 hPa 0,0 l/m 1,3 km/h (1 Bft) SW 225 5 min 0,9 UV-I 12,2 C 29,0 C 2,3 km/h (1 Bft)
25.09.2012 16:05 23,6 C 19,9 C 21,7 C 29,0 C 29,0 C 5,4 C 47 % 57 % 100 % 1003,9 hPa 0,0 l/m 1,3 km/h (1 Bft) NO 45 5 min 0,8 UV-I 11,6 C 29,0 C 2,4 km/h (1 Bft)
25.09.2012 16:10 23,6 C 19,9 C 21,6 C 29,1 C 29,1 C 5,5 C 47 % 57 % 100 % 1003,9 hPa 0,0 l/m 1,1 km/h (1 Bft) O-NO 67 5 min 0,8 UV-I 11,6 C 29,1 C 2,9 km/h (1 Bft)
25.09.2012 16:15 23,7 C 19,9 C 21,6 C 28,9 C 28,9 C 5,2 C 46 % 56 % 100 % 1003,9 hPa 0,0 l/m 1,3 km/h (1 Bft) S 180 5 min 0,8 UV-I 11,4 C 28,9 C 0,0 km/h (0 Bft)
25.09.2012 16:20 23,7 C 19,9 C 21,5 C 28,4 C 28,4 C 4,7 C 46 % 55 % 100 % 1004,1 hPa 0,0 l/m 1,1 km/h (1 Bft) NW 315 5 min 0,7 UV-I 11,4 C 28,4 C 0,0 km/h (0 Bft)
25.09.2012 16:25 23,5 C 19,9 C 21,4 C 26,8 C 26,8 C 3,3 C 47 % 57 % 87 % 1004,1 hPa 0,0 l/m 0,6 km/h (0 Bft) S 180 5 min 0,6 UV-I 11,5 C 26,8 C 0,0 km/h (0 Bft)
25.09.2012 16:30 23,3 C 19,9 C 21,3 C 26,1 C 26,1 C 2,8 C 48 % 58 % 74 % 1004,1 hPa 0,0 l/m 0,5 km/h (0 Bft) O-SO 112 0 min 0,6 UV-I 11,7 C 26,1 C 2,1 km/h (1 Bft)
25.09.2012 16:35 23,1 C 20,0 C 21,3 C 25,9 C 25,9 C 2,8 C 49 % 58 % 74 % 1004,1 hPa 0,0 l/m 0,6 km/h (0 Bft) NW 315 0 min 0,4 UV-I 11,8 C 25,9 C 1,9 km/h (1 Bft)
25.09.2012 16:40 23,1 C 20,0 C 21,6 C 27,0 C 27,0 C 3,9 C 49 % 58 % 100 % 1004,0 hPa 0,0 l/m 1,0 km/h (0 Bft) SO 135 5 min 0,5 UV-I 11,8 C 27,0 C 2,7 km/h (1 Bft)
25.09.2012 16:45 23,1 C 20,0 C 21,6 C 28,1 C 28,1 C 5,0 C 48 % 58 % 100 % 1004,0 hPa 0,0 l/m 1,1 km/h (1 Bft) S-SO 157 5 min 0,5 UV-I 11,5 C 28,1 C 2,6 km/h (1 Bft)
25.09.2012 16:50 23,2 C 20,0 C 21,7 C 28,4 C 28,4 C 5,2 C 49 % 58 % 100 % 1004,0 hPa 0,0 l/m 1,1 km/h (1 Bft) O-NO 67 5 min 0,4 UV-I 11,9 C 28,4 C 0,0 km/h (0 Bft)
25.09.2012 16:55 23,0 C 20,0 C 21,4 C 28,3 C 28,3 C 5,3 C 49 % 59 % 100 % 1004,0 hPa 0,0 l/m 1,1 km/h (1 Bft) O-NO 67 5 min 0,3 UV-I 11,7 C 28,3 C 0,0 km/h (0 Bft)
25.09.2012 17:00 22,9 C 20,1 C 21,2 C 27,3 C 27,3 C 4,4 C 49 % 59 % 100 % 1004,2 hPa 0,0 l/m 1,0 km/h (0 Bft) O-SO 112 5 min 0,2 UV-I 11,6 C 27,3 C 1,9 km/h (1 Bft)
25.09.2012 17:05 22,7 C 20,1 C 20,9 C 25,4 C 25,4 C 2,7 C 50 % 59 % 71 % 1004,2 hPa 0,0 l/m 0,5 km/h (0 Bft) NO 45 0 min 0,2 UV-I 11,7 C 25,4 C 0,0 km/h (0 Bft)
25.09.2012 17:10 22,5 C 20,1 C 20,7 C 24,3 C 24,3 C 1,8 C 50 % 60 % 47 % 1004,2 hPa 0,0 l/m 0,5 km/h (0 Bft) W 270 0 min 0,1 UV-I 11,5 C 24,3 C 2,1 km/h (1 Bft)
25.09.2012 17:15 22,2 C 20,1 C 20,7 C 23,5 C 23,5 C 1,3 C 51 % 61 % 34 % 1004,2 hPa 0,0 l/m 0,3 km/h (0 Bft) O-NO 67 0 min 0,1 UV-I 11,6 C 23,5 C 0,0 km/h (0 Bft)
25.09.2012 17:20 22,0 C 20,1 C 20,7 C 24,1 C 24,1 C 2,1 C 51 % 62 % 55 % 1003,8 hPa 0,0 l/m 0,3 km/h (0 Bft) O-SO 112 0 min 0,1 UV-I 11,4 C 24,1 C 3,2 km/h (1 Bft)
25.09.2012 17:25 22,1 C 20,1 C 20,9 C 25,3 C 25,3 C 3,2 C 52 % 61 % 84 % 1003,8 hPa 0,0 l/m 0,5 km/h (0 Bft) W 270 5 min 0,0 UV-I 11,8 C 25,3 C 0,0 km/h (0 Bft)
25.09.2012 17:30 22,1 C 20,1 C 20,8 C 25,5 C 25,5 C 3,4 C 51 % 60 % 89 % 1003,8 hPa 0,0 l/m 1,1 km/h (1 Bft) SO 135 5 min 0,0 UV-I 11,5 C 25,5 C 2,1 km/h (1 Bft)
25.09.2012 17:35 22,2 C 20,2 C 20,8 C 25,2 C 25,2 C 3,0 C 51 % 60 % 79 % 1003,8 hPa 0,0 l/m 1,3 km/h (1 Bft) W-SW 247 5 min 0,0 UV-I 11,6 C 25,2 C 0,0 km/h (0 Bft)
25.09.2012 17:40 22,1 C 20,2 C 20,5 C 24,4 C 24,4 C 2,3 C 52 % 61 % 61 % 1003,7 hPa 0,0 l/m 0,8 km/h (0 Bft) O 90 5 min 0,0 UV-I 11,8 C 24,4 C 0,0 km/h (0 Bft)
25.09.2012 17:46 21,9 C 20,2 C 20,2 C 23,0 C 23,0 C 1,1 C 51 % 61 % 29 % 1003,7 hPa 0,0 l/m 0,5 km/h (0 Bft) O 90 0 min 0,0 UV-I 11,3 C 23,0 C 0,0 km/h (0 Bft)
25.09.2012 17:50 21,9 C 20,2 C 20,2 C 23,0 C 23,0 C 1,1 C 51 % 61 % 29 % 1003,7 hPa 0,0 l/m 0,5 km/h (0 Bft) O 90 0 min 0,0 UV-I 11,3 C 23,0 C 0,0 km/h (0 Bft)
25.09.2012 17:55 21,8 C 20,2 C 20,0 C 22,4 C 22,4 C 0,6 C 52 % 62 % 16 % 1003,7 hPa 0,0 l/m 0,3 km/h (0 Bft) O 90 0 min 0,0 UV-I 11,5 C 22,4 C 1,8 km/h (1 Bft)
25.09.2012 18:00 21,5 C 20,2 C 19,7 C 21,5 C 21,5 C 0,0 C 53 % 63 % 0 % 1003,7 hPa 0,0 l/m 0,0 km/h (0 Bft) O-NO 67 0 min 0,0 UV-I 11,5 C 21,5 C 0,0 km/h (0 Bft)
25.09.2012 18:05 21,2 C 20,2 C 19,5 C 21,2 C 21,2 C 0,0 C 53 % 63 % 0 % 1003,9 hPa 0,0 l/m 0,0 km/h (0 Bft) O-SO 112 0 min 0,0 UV-I 11,2 C 21,2 C 0,0 km/h (0 Bft)
25.09.2012 18:10 21,0 C 20,2 C 19,4 C 20,9 C 20,8 C 0,0 C 53 % 63 % 0 % 1003,9 hPa 0,0 l/m 0,0 km/h (0 Bft) O 90 0 min 0,0 UV-I 11,0 C 20,8 C 0,0 km/h (0 Bft)
25.09.2012 18:15 20,9 C 20,2 C 19,3 C 20,8 C 20,6 C 0,0 C 54 % 64 % 0 % 1003,9 hPa 0,0 l/m 0,0 km/h (0 Bft) O-NO 67 0 min 0,0 UV-I 11,2 C 20,6 C 0,0 km/h (0 Bft)
25.09.2012 18:20 20,7 C 20,2 C 19,2 C 20,6 C 20,3 C 0,0 C 55 % 64 % 0 % 1003,9 hPa 0,0 l/m 0,0 km/h (0 Bft) O-NO 67 0 min 0,0 UV-I 11,3 C 20,3 C 0,0 km/h (0 Bft)
25.09.2012 18:25 20,7 C 20,3 C 19,1 C 20,5 C 20,2 C 0,0 C 55 % 65 % 0 % 1003,8 hPa 0,0 l/m 0,0 km/h (0 Bft) W-NW 292 0 min 0,0 UV-I 11,3 C 20,2 C 0,0 km/h (0 Bft)
25.09.2012 18:30 20,5 C 20,3 C 19,0 C 20,3 C 20,0 C 0,0 C 55 % 66 % 0 % 1003,8 hPa 0,0 l/m 0,2 km/h (0 Bft) SO 135 0 min 0,0 UV-I 11,1 C 20,0 C 0,0 km/h (0 Bft)
25.09.2012 18:35 20,4 C 20,3 C 18,8 C 20,2 C 19,8 C 0,0 C 56 % 66 % 0 % 1003,8 hPa 0,0 l/m 0,3 km/h (0 Bft) S 180 0 min 0,0 UV-I 11,3 C 19,8 C 0,0 km/h (0 Bft)
25.09.2012 18:46 19,9 C 20,4 C 18,6 C 19,7 C 19,2 C 0,0 C 58 % 68 % 0 % 1004,4 hPa 0,0 l/m 0,0 km/h (0 Bft) N 0 0 min 0,0 UV-I 11,4 C 19,2 C 0,0 km/h (0 Bft)
25.09.2012 18:55 19,9 C 20,4 C 18,4 C 19,6 C 19,1 C 0,0 C 59 % 69 % 0 % 1004,4 hPa 0,0 l/m 0,8 km/h (0 Bft) W 270 0 min 0,0 UV-I 11,6 C 19,1 C 5,0 km/h (1 Bft)
25.09.2012 19:00 19,3 C 20,4 C 18,1 C 19,1 C 18,7 C 0,0 C 61 % 70 % 0 % 1004,4 hPa 0,0 l/m 5,0 km/h (1 Bft) W-SW 247 0 min 0,0 UV-I 11,6 C 18,7 C 8,2 km/h (2 Bft)
25.09.2012 19:05 18,2 C 20,4 C 17,4 C 17,9 C 17,4 C 0,0 C 65 % 71 % 0 % 1005,2 hPa 0,0 l/m 6,8 km/h (2 Bft) O-SO 112 0 min 0,0 UV-I 11,5 C 17,4 C 7,9 km/h (2 Bft)
25.09.2012 19:10 18,2 C 20,4 C 17,4 C 17,9 C 17,4 C 0,0 C 65 % 71 % 0 % 1005,2 hPa 0,0 l/m 6,8 km/h (2 Bft) O-SO 112 0 min 0,0 UV-I 11,5 C 17,4 C 7,9 km/h (2 Bft)
25.09.2012 19:15 17,9 C 20,4 C 17,3 C 17,7 C 17,2 C 0,0 C 66 % 71 % 0 % 1005,2 hPa 0,0 l/m 6,1 km/h (2 Bft) W-SW 247 0 min 0,0 UV-I 11,5 C 17,2 C 6,9 km/h (2 Bft)
25.09.2012 19:20 17,6 C 20,4 C 17,2 C 17,4 C 16,9 C 0,0 C 66 % 72 % 0 % 1005,2 hPa 0,0 l/m 6,3 km/h (2 Bft) W 270 0 min 0,0 UV-I 11,2 C 16,9 C 9,7 km/h (2 Bft)
25.09.2012 19:25 17,5 C 20,4 C 17,1 C 17,3 C 16,8 C 0,0 C 67 % 72 % 0 % 1005,4 hPa 0,0 l/m 6,0 km/h (2 Bft) SW 225 0 min 0,0 UV-I 11,3 C 16,8 C 6,4 km/h (2 Bft)
25.09.2012 19:30 17,3 C 20,4 C 16,8 C 17,1 C 16,7 C 0,0 C 68 % 73 % 0 % 1005,4 hPa 0,0 l/m 5,6 km/h (1 Bft) SW 225 0 min 0,0 UV-I 11,3 C 16,7 C 4,3 km/h (1 Bft)
25.09.2012 19:35 17,2 C 20,4 C 16,8 C 17,0 C 16,5 C 0,0 C 68 % 73 % 0 % 1005,4 hPa 0,0 l/m 5,1 km/h (1 Bft) SW 225 0 min 0,0 UV-I 11,2 C 16,5 C 5,1 km/h (1 Bft)
25.09.2012 19:40 17,1 C 20,4 C 16,6 C 16,9 C 16,5 C 0,0 C 69 % 74 % 0 % 1005,4 hPa 0,0 l/m 3,7 km/h (1 Bft) SO 135 0 min 0,0 UV-I 11,4 C 16,5 C 0,0 km/h (0 Bft)
25.09.2012 19:45 17,0 C 20,4 C 16,7 C 16,8 C 16,4 C 0,0 C 69 % 74 % 0 % 1006,1 hPa 0,0 l/m 2,7 km/h (1 Bft) W 270 0 min 0,0 UV-I 11,3 C 16,4 C 4,8 km/h (1 Bft)
25.09.2012 19:50 16,8 C 20,5 C 16,4 C 16,6 C 16,3 C 0,0 C 71 % 75 % 0 % 1006,1 hPa 0,0 l/m 2,3 km/h (1 Bft) W-SW 247 0 min 0,0 UV-I 11,5 C 16,3 C 5,3 km/h (1 Bft)
25.09.2012 19:55 16,7 C 20,5 C 16,3 C 16,5 C 16,1 C 0,0 C 71 % 76 % 0 % 1006,1 hPa 0,0 l/m 2,3 km/h (1 Bft) O 90 0 min 0,0 UV-I 11,4 C 16,1 C 0,0 km/h (0 Bft)
25.09.2012 20:00 16,4 C 20,5 C 16,0 C 16,2 C 15,7 C 0,0 C 73 % 77 % 0 % 1005,4 hPa 0,0 l/m 0,6 km/h (0 Bft) O 90 0 min 0,0 UV-I 11,5 C 15,7 C 0,0 km/h (0 Bft)
25.09.2012 20:05 16,2 C 20,5 C 15,8 C 15,9 C 15,4 C 0,0 C 73 % 78 % 0 % 1005,4 hPa 0,0 l/m 0,3 km/h (0 Bft) O-NO 67 0 min 0,0 UV-I 11,4 C 15,4 C 0,0 km/h (0 Bft)
25.09.2012 20:10 16,2 C 20,5 C 15,8 C 15,9 C 15,4 C 0,0 C 73 % 78 % 0 % 1005,4 hPa 0,0 l/m 0,3 km/h (0 Bft) O-NO 67 0 min 0,0 UV-I 11,4 C 15,4 C 0,0 km/h (0 Bft)
25.09.2012 20:15 16,1 C 20,5 C 15,7 C 15,8 C 15,2 C 0,0 C 74 % 78 % 0 % 1005,4 hPa 0,0 l/m 0,0 km/h (0 Bft) O-NO 67 0 min 0,0 UV-I 11,5 C 15,2 C 0,0 km/h (0 Bft)
25.09.2012 20:20 15,9 C 20,7 C 15,5 C 15,6 C 14,9 C 0,0 C 75 % 79 % 0 % 1005,2 hPa 0,0 l/m 0,8 km/h (0 Bft) O-SO 112 0 min 0,0 UV-I 11,5 C 14,9 C 0,0 km/h (0 Bft)
25.09.2012 20:25 15,9 C 20,7 C 15,5 C 15,6 C 14,9 C 0,0 C 75 % 79 % 0 % 1005,2 hPa 0,0 l/m 0,8 km/h (0 Bft) O-SO 112 0 min 0,0 UV-I 11,5 C 14,9 C 0,0 km/h (0 Bft)
25.09.2012 20:30 15,7 C 20,7 C 15,2 C 15,4 C 14,8 C 0,0 C 76 % 80 % 0 % 1005,2 hPa 0,0 l/m 0,6 km/h (0 Bft) O-NO 67 0 min 0,0 UV-I 11,5 C 14,8 C 0,0 km/h (0 Bft)
25.09.2012 20:35 15,6 C 20,7 C 15,2 C 15,3 C 14,7 C 0,0 C 77 % 81 % 0 % 1005,2 hPa 0,0 l/m 0,0 km/h (0 Bft) O 90 0 min 0,0 UV-I 11,6 C 14,7 C 0,0 km/h (0 Bft)
25.09.2012 20:40 15,6 C 20,7 C 15,2 C 15,3 C 14,7 C 0,0 C 77 % 81 % 0 % 1005,2 hPa 0,0 l/m 0,0 km/h (0 Bft) O 90 0 min 0,0 UV-I 11,6 C 14,7 C 0,0 km/h (0 Bft)
25.09.2012 20:45 15,4 C 20,7 C 15,1 C 15,1 C 14,6 C 0,0 C 77 % 81 % 0 % 1005,8 hPa 0,0 l/m 0,0 km/h (0 Bft) W 270 0 min 0,0 UV-I 11,4 C 14,6 C 0,0 km/h (0 Bft)
25.09.2012 20:50 15,2 C 20,7 C 15,1 C 15,0 C 14,5 C 0,0 C 78 % 82 % 0 % 1005,8 hPa 0,0 l/m 0,0 km/h (0 Bft) W 270 0 min 0,0 UV-I 11,4 C 14,5 C 0,0 km/h (0 Bft)
25.09.2012 20:55 15,1 C 20,7 C 15,1 C 14,9 C 14,5 C 0,0 C 78 % 82 % 0 % 1005,8 hPa 0,0 l/m 0,0 km/h (0 Bft) O-NO 67 0 min 0,0 UV-I 11,3 C 14,5 C 0,0 km/h (0 Bft)
25.09.2012 21:00 15,1 C 20,7 C 15,1 C 14,9 C 14,5 C 0,0 C 78 % 82 % 0 % 1005,8 hPa 0,0 l/m 0,0 km/h (0 Bft) O-NO 67 0 min 0,0 UV-I 11,3 C 14,5 C 0,0 km/h (0 Bft)
25.09.2012 21:05 14,8 C 20,7 C 14,9 C 14,6 C 14,3 C 0,0 C 79 % 83 % 0 % 1005,6 hPa 0,0 l/m 0,2 km/h (0 Bft) O 90 0 min 0,0 UV-I 11,2 C 14,3 C 0,0 km/h (0 Bft)
25.09.2012 21:10 14,8 C 20,7 C 14,9 C 14,6 C 14,3 C 0,0 C 79 % 83 % 0 % 1005,6 hPa 0,0 l/m 0,2 km/h (0 Bft) O 90 0 min 0,0 UV-I 11,2 C 14,3 C 0,0 km/h (0 Bft)
25.09.2012 21:15 14,5 C 20,7 C 14,7 C 14,4 C 14,1 C 0,0 C 79 % 83 % 0 % 1005,6 hPa 0,0 l/m 0,0 km/h (0 Bft) O-NO 67 0 min 0,0 UV-I 10,9 C 14,1 C 0,0 km/h (0 Bft)
25.09.2012 21:20 14,5 C 20,7 C 14,7 C 14,4 C 14,1 C 0,0 C 79 % 83 % 0 % 1005,6 hPa 0,0 l/m 0,0 km/h (0 Bft) O-NO 67 0 min 0,0 UV-I 10,9 C 14,1 C 0,0 km/h (0 Bft)
25.09.2012 21:25 14,1 C 20,7 C 14,7 C 14,0 C 13,9 C 0,0 C 80 % 84 % 0 % 1005,7 hPa 0,0 l/m 0,0 km/h (0 Bft) SW 225 0 min 0,0 UV-I 10,7 C 13,9 C 0,0 km/h (0 Bft)
25.09.2012 21:30 14,1 C 20,7 C 14,7 C 14,0 C 13,9 C 0,0 C 80 % 84 % 0 % 1005,7 hPa 0,0 l/m 0,0 km/h (0 Bft) SW 225 0 min 0,0 UV-I 10,7 C 13,9 C 0,0 km/h (0 Bft)
25.09.2012 21:35 13,9 C 20,8 C 14,4 C 13,8 C 13,7 C 0,0 C 80 % 84 % 0 % 1005,7 hPa 0,0 l/m 0,0 km/h (0 Bft) O 90 0 min 0,0 UV-I 10,5 C 13,7 C 0,0 km/h (0 Bft)
25.09.2012 21:40 13,8 C 20,8 C 14,2 C 13,8 C 13,7 C 0,0 C 81 % 84 % 0 % 1006,4 hPa 0,0 l/m 0,5 km/h (0 Bft) O-NO 67 0 min 0,0 UV-I 10,6 C 13,7 C 2,3 km/h (1 Bft)
25.09.2012 21:45 13,6 C 20,8 C 14,1 C 13,7 C 13,7 C 0,1 C 81 % 85 % 0 % 1006,4 hPa 0,0 l/m 1,3 km/h (1 Bft) O-NO 67 0 min 0,0 UV-I 10,4 C 13,7 C 1,8 km/h (1 Bft)
25.09.2012 21:50 13,5 C 20,8 C 14,1 C 13,7 C 13,7 C 0,2 C 82 % 85 % 0 % 1006,4 hPa 0,0 l/m 1,1 km/h (1 Bft) O-NO 67 0 min 0,0 UV-I 10,5 C 13,7 C 0,0 km/h (0 Bft)
25.09.2012 21:55 13,5 C 20,8 C 14,1 C 13,7 C 13,7 C 0,2 C 82 % 85 % 0 % 1006,4 hPa 0,0 l/m 0,3 km/h (0 Bft) NO 45 0 min 0,0 UV-I 10,5 C 13,7 C 0,0 km/h (0 Bft)
25.09.2012 22:00 13,5 C 20,8 C 14,0 C 13,7 C 13,7 C 0,2 C 82 % 85 % 0 % 1006,0 hPa 0,0 l/m 0,0 km/h (0 Bft) O 90 0 min 0,0 UV-I 10,5 C 13,7 C 0,0 km/h (0 Bft)
25.09.2012 22:05 13,3 C 20,8 C 13,9 C 13,6 C 13,6 C 0,3 C 82 % 86 % 0 % 1006,0 hPa 0,0 l/m 0,0 km/h (0 Bft) O-NO 67 0 min 0,0 UV-I 10,3 C 13,6 C 0,0 km/h (0 Bft)
25.09.2012 22:10 13,2 C 20,8 C 13,9 C 13,5 C 13,5 C 0,3 C 82 % 86 % 0 % 1006,0 hPa 0,0 l/m 0,0 km/h (0 Bft) O-NO 67 0 min 0,0 UV-I 10,2 C 13,5 C 0,0 km/h (0 Bft)
25.09.2012 22:15 13,2 C 20,8 C 13,8 C 13,5 C 13,5 C 0,3 C 82 % 86 % 0 % 1006,0 hPa 0,0 l/m 0,0 km/h (0 Bft) O-NO 67 0 min 0,0 UV-I 10,2 C 13,5 C 0,0 km/h (0 Bft)
25.09.2012 22:20 13,1 C 20,8 C 13,9 C 13,5 C 13,5 C 0,4 C 82 % 86 % 0 % 1005,9 hPa 0,0 l/m 0,0 km/h (0 Bft) NO 45 0 min 0,0 UV-I 10,1 C 13,5 C 0,0 km/h (0 Bft)
25.09.2012 22:25 13,1 C 20,7 C 13,8 C 13,6 C 13,6 C 0,5 C 83 % 86 % 0 % 1005,9 hPa 0,0 l/m 0,0 km/h (0 Bft) NO 45 0 min 0,0 UV-I 10,3 C 13,6 C 0,0 km/h (0 Bft)
25.09.2012 22:30 13,1 C 20,7 C 13,9 C 13,7 C 13,7 C 0,6 C 83 % 86 % 0 % 1005,9 hPa 0,0 l/m 0,0 km/h (0 Bft) O-NO 67 0 min 0,0 UV-I 10,3 C 13,7 C 0,0 km/h (0 Bft)
25.09.2012 22:35 13,0 C 20,7 C 13,9 C 13,7 C 13,7 C 0,7 C 83 % 86 % 0 % 1005,9 hPa 0,0 l/m 0,0 km/h (0 Bft) O-NO 67 0 min 0,0 UV-I 10,2 C 13,7 C 0,0 km/h (0 Bft)
25.09.2012 22:40 13,0 C 20,7 C 13,9 C 13,7 C 13,7 C 0,7 C 83 % 86 % 0 % 1005,7 hPa 0,0 l/m 0,0 km/h (0 Bft) NO 45 0 min 0,0 UV-I 10,2 C 13,7 C 0,0 km/h (0 Bft)
25.09.2012 22:45 13,1 C 20,7 C 13,9 C 13,7 C 13,7 C 0,6 C 83 % 86 % 0 % 1005,7 hPa 0,0 l/m 0,0 km/h (0 Bft) N-NO 22 0 min 0,0 UV-I 10,3 C 13,7 C 0,0 km/h (0 Bft)
25.09.2012 22:50 13,1 C 20,7 C 13,9 C 13,7 C 13,7 C 0,6 C 83 % 86 % 0 % 1005,7 hPa 0,0 l/m 0,0 km/h (0 Bft) N-NO 22 0 min 0,0 UV-I 10,3 C 13,7 C 0,0 km/h (0 Bft)
25.09.2012 22:55 13,1 C 20,7 C 13,9 C 13,7 C 13,7 C 0,6 C 83 % 86 % 0 % 1005,7 hPa 0,0 l/m 0,0 km/h (0 Bft) O-NO 67 0 min 0,0 UV-I 10,3 C 13,7 C 0,0 km/h (0 Bft)
25.09.2012 23:00 13,1 C 20,7 C 13,8 C 13,6 C 13,6 C 0,5 C 83 % 86 % 0 % 1005,7 hPa 0,0 l/m 0,0 km/h (0 Bft) O-NO 67 0 min 0,0 UV-I 10,3 C 13,6 C 0,0 km/h (0 Bft)
25.09.2012 23:05 12,9 C 20,7 C 13,7 C 13,5 C 13,5 C 0,6 C 83 % 86 % 0 % 1005,7 hPa 0,0 l/m 0,0 km/h (0 Bft) O-NO 67 0 min 0,0 UV-I 10,1 C 13,5 C 0,0 km/h (0 Bft)
25.09.2012 23:10 12,9 C 20,7 C 13,7 C 13,4 C 13,4 C 0,5 C 83 % 86 % 0 % 1005,7 hPa 0,0 l/m 0,0 km/h (0 Bft) O-NO 67 0 min 0,0 UV-I 10,1 C 13,4 C 0,0 km/h (0 Bft)
25.09.2012 23:15 12,9 C 20,7 C 13,6 C 13,5 C 13,5 C 0,6 C 83 % 87 % 0 % 1005,7 hPa 0,0 l/m 0,0 km/h (0 Bft) O-NO 67 0 min 0,0 UV-I 10,1 C 13,5 C 0,0 km/h (0 Bft)
25.09.2012 23:20 12,8 C 20,7 C 13,7 C 13,5 C 13,5 C 0,7 C 83 % 87 % 0 % 1006,0 hPa 0,0 l/m 0,0 km/h (0 Bft) O-NO 67 0 min 0,0 UV-I 10,0 C 13,5 C 0,0 km/h (0 Bft)
25.09.2012 23:25 12,9 C 20,8 C 13,7 C 13,7 C 13,7 C 0,8 C 83 % 87 % 0 % 1006,0 hPa 0,0 l/m 0,0 km/h (0 Bft) O-NO 67 0 min 0,0 UV-I 10,1 C 13,7 C 0,0 km/h (0 Bft)
25.09.2012 23:30 12,9 C 20,8 C 13,6 C 13,7 C 13,7 C 0,8 C 83 % 87 % 0 % 1006,0 hPa 0,0 l/m 0,0 km/h (0 Bft) O-NO 67 0 min 0,0 UV-I 10,1 C 13,7 C 0,0 km/h (0 Bft)
25.09.2012 23:35 12,9 C 20,7 C 13,6 C 13,7 C 13,7 C 0,8 C 83 % 87 % 0 % 1006,0 hPa 0,0 l/m 0,0 km/h (0 Bft) O 90 0 min 0,0 UV-I 10,1 C 13,7 C 0,0 km/h (0 Bft)
25.09.2012 23:40 12,9 C 20,7 C 13,7 C 13,7 C 13,7 C 0,8 C 83 % 87 % 0 % 1005,6 hPa 0,0 l/m 0,0 km/h (0 Bft) SW 225 0 min 0,0 UV-I 10,1 C 13,7 C 0,0 km/h (0 Bft)
25.09.2012 23:45 12,9 C 20,7 C 13,6 C 13,6 C 13,6 C 0,7 C 83 % 87 % 0 % 1005,6 hPa 0,0 l/m 0,0 km/h (0 Bft) NW 315 0 min 0,0 UV-I 10,1 C 13,6 C 0,0 km/h (0 Bft)
25.09.2012 23:50 12,9 C 20,7 C 13,7 C 13,4 C 13,4 C 0,5 C 84 % 87 % 0 % 1005,6 hPa 0,0 l/m 0,0 km/h (0 Bft) NO 45 0 min 0,0 UV-I 10,3 C 13,4 C 0,0 km/h (0 Bft)
25.09.2012 23:55 12,8 C 20,7 C 13,6 C 13,2 C 13,2 C 0,4 C 84 % 87 % 0 % 1005,6 hPa 0,0 l/m 0,0 km/h (0 Bft) NO 45 0 min 0,0 UV-I 10,2 C 13,2 C 0,0 km/h (0 Bft)
_ Min-Zeit 07:10 11:20 07:00 06:35 04:50 00:00 16:15 16:20 00:00 17:40 - 03:20 - - - 00:00 06:05 04:50 01:45
Minimum _ 7,8 C 19,0 C 9,0 C 8,0 C 7,9 C 0,0 C 46 % 55 % 0 % 1003,7 hPa - 0,0 km/h (0 Bft) - - - 0,0 UV-I 5,5 C 7,9 C 0,0 km/h (0 Bft)
_ Max-Zeit 16:00 21:35 16:05 16:10 16:10 08:05 08:00 07:05 07:35 21:40 00:00 19:05 - - 07:15 13:15 13:25 16:10 11:40
Maximum _ 23,9 C 20,8 C 21,7 C 29,1 C 29,1 C 8,5 C 89 % 89 % 100 % 1006,4 hPa 0,0 l/m 6,8 km/h
O-SO (2 Bft)
- - 5 min 3,1 UV-I 12,7 C 29,1 C 17,4 km/h
SW (3 Bft)
Durchschnitt _ 15,6 C 19,9 C 15,2 C 17,0 C 16,8 C 1,6 C 70 % 77 % 33 % 1004,9 hPa #0,0 l/m 1,2 km/h (1 Bft) S - #5:30 h 1,2 UV-I 9,9 C 16,8 C 1,9 km/h (1 Bft)
2012 www.wetterstation-wechselburg.de